Location: Goll?ig?dem
(16.6773°N, 80.7332°E)
Time: 16:51:49
(UTC+00:00)

Envisat - Visible Passes

Search period start: 25 September 2021 00:00
Search period end: 05 October 2021 00:00
Orbit: 764 x 766 km, 98.2° (Epoch: 25 September)

Date Brightness Start Highest point End Pass type
(mag) Time Alt. Az. Time Alt. Az. Time Alt. Az.
25 Sep 5.9 22:31:43 10° ENE 22:34:37 15° E 22:37:31 10° SE visible
26 Sep 3.0 23:31:43 10° NNE 23:36:48 86° ESE 23:41:52 10° S visible
27 Sep 4.9 22:55:32 10° NE 22:59:59 31° E 23:04:25 10° SSE visible
28 Sep 6.2 22:21:49 10° E 22:23:04 11° E 22:24:20 10° ESE visible
28 Sep 3.3 23:57:13 10° N 00:02:03 46° WNW 00:06:52 10° SSW visible
29 Sep 3.5 23:20:17 10° NNE 23:25:18 64° ESE 23:30:19 10° S visible
30 Sep 5.4 22:44:30 10° NE 22:48:27 23° E 22:52:24 10° SSE visible
01 Oct 3.0 23:45:34 10° N 23:50:34 63° WNW 23:55:35 10° SSW visible
02 Oct 4.1 23:08:56 10° NNE 23:13:48 46° E 23:18:38 10° S visible
03 Oct 5.8 22:33:42 10° ENE 22:36:56 17° E 22:40:08 10° SE visible
04 Oct 2.9 23:34:01 10° N 23:39:05 86° WNW 23:44:10 10° SSW visible
